Location: Ferintosh
(52.7647°N, 112.9692°W)
Time: 19:31:57
(UTC+00:00)

Explorer 7 - Pass Details

Date: 30 May 2024
Orbit: 466 x 622 km, 50.3° (Epoch: 16 June)

Event Time Altitude Azimuth Distance (km) Brightness Sun altitude
Rises 08:41:44 0° 278° (W) 2,580 10.2 -13.7°
Reaches altitude 10° 08:44:08 10° 265° (W) 1,720 9.1 -13.6°
Maximum altitude 08:47:20 24° 210° (SSW) 1,097 7.7 -13.5°
Enters shadow 08:48:08 23° 190° (S) 1,154 7.8 -13.4°
Drops below altitude 10° 08:50:39 10° 155° (SSE) 1,791 - -13.3°
Sets 08:53:13 0° 142° (SE) 2,713 - -13.2°
